weather.gov     
National Weather Service

Regional Weather Roundup
NWS Homepage
This page is being discontinued on March 12, 2014.
The same data is available at this site. Please update your bookmarks.
Thank you, and we apologize for the inconvenience.
Please send an email to SR-SRH.Webmaster@noaa.gov with any concerns.


Current Version
Previous Version:    01  02  03  04  05  06  07  08  09  10  11  12  13  14  15  16  17  18  19  20  21  22  23  24  25  26  
[Printable]
575
ASUS41 KGYX 020905
RWRGYX
WEATHER ROUNDUP FOR MAINE AND NEW HAMPSHIRE
NATIONAL WEATHER SERVICE GRAY ME
500 AM EDT TUE SEP 02 2014

MEZ002-005-006-010-012-015-018-020-021-024-026-027-029-021000-
MAINE

CITY           SKY/WX    TMP DP  RH WIND       PRES   REMARKS
PORTLAND       FOG       64  63  96 NE5       29.89S VSB 1/2
SANFORD        MOCLDY    63  57  82 NE5       29.89F
BAR HARBOR     CLOUDY    59  59 100 CALM      29.92F VSB 1/4
WISCASSET      FOG       64  64 100 CALM      29.91S VSB 1/4
ROCKLAND       CLOUDY    63  61  94 NE5       29.89F VSB 1/4
FRYEBURG       MOCLDY    59  58  96 CALM      29.90F FOG
LEWISTONAUBURN CLOUDY    63  61  94 CALM      29.91R VSB 1/4
AUGUSTA        FOG       65  64  97 SE3       29.90F VSB<1/4
WATERVILLE     CLOUDY    64  64 100 CALM      29.86F VSB 1/4
BANGOR         FOG       65  64  97 S6        29.90F VSB 1/4
GREENVILLE       N/A     62  61  96 CALM      29.91F
MILLINOCKET    CLOUDY    67  65  93 CALM      29.92F FOG
HOULTON        CLOUDY    65  63  93 SE5       29.91F
PRESQUE ISLE   CLOUDY    64  61  88 SE7       29.91F
FRENCHVILLE    FOG       61  61 100 SE8       29.91F VSB 1/4
CARIBOU        CLOUDY    64  62  93 SE7       29.91F FOG
$$

NHZ002-005-008-009-011-012-014-021000-
NEW HAMPSHIRE

CITY           SKY/WX    TMP DP  RH WIND       PRES   REMARKS
PORTSMOUTH     CLEAR     68  66  96 NE1       29.87F
ROCHESTER      PTCLDY    64  62  93 CALM      29.88F
NASHUA         CLEAR     69  68  97 CALM      29.89F
MANCHESTER     CLEAR     70  66  87 CALM      29.87F
CONCORD        CLOUDY    63  63 100 CALM      29.89S
LACONIA        CLOUDY    64  61  88 CALM      29.89S
PLYMOUTH       FOG       60  60 100 CALM      29.90F VSB 1/4
BERLIN         NOT AVBL
WHITEFIELD     CLEAR     56  54  93 CALM      29.90F
JAFFREY        CLOUDY    67  66  97 CALM      29.92  FOG
LEBANON        FOG       64  61  90 CALM      29.88F VSB 1
MT WASHINGTON  FOG       54  54 100 W31         N/A  VSB 0
$$

VTZ005-007-008-021000-
VERMONT

CITY           SKY/WX    TMP DP  RH WIND       PRES   REMARKS
ST JOHNSBURY     N/A     60  59  96 MISG      29.87F
MONTPELIER     FOG       59  59 100 CALM      29.92S VSB 3/4
BURLINGTON     PTCLDY    73  66  78 S10       29.82F
$$

MAZ007-012-024-CTZ003-RIZ002-NYZ038-NYZ072-021000-
SOUTHERN NEW ENGLAND AND NY

CITY           SKY/WX    TMP DP  RH WIND       PRES   REMARKS
BOSTON         PTCLDY    72  70  93 S5        29.89S
WORCESTER      CLEAR     70  68  93 W7        29.92F FOG
NANTUCKET      FOG       69  68  96 SW5       29.93S VSB 1/2
PROVIDENCE     MOCLDY    71  70  96 S6        29.91S FOG
HARTFORD       PTCLDY    73  71  93 S6        29.88F
ALBANY         PTCLDY    73  70  90 S10       29.86F
NEW YORK CITY  CLEAR     79  73  82 SW5       29.89F
$$

ANZ081-ANZ082-ANZ150-NHZ014-MEZ023>029-021000-
COASTAL MARINE OBSERVATIONS

STATION/POSITION TIME  TEMP    WIND        PRES    WAVE
                       AIR SEA DIR/SP/G            HT/PER
                 (UTC) (F)     (DEG/KT/KT) (MB)    (FT/S)
MATINICUS ROCK   0800          110/ 10/ 10 1012.3F
PORTLAND WX BUOY 0850   64 63   70/  2/  2 1011.7F   2/ 8
WELLS            0800   64 59  250/  1/  2 1011.2F
ISLE OF SHOALS   0800   72     220/  6/  7 1011.5F
JEFFREYS LEDGE   0821      67                N/A     2/ 6
CASHES LEDGE BUO 0850   67 65              1011.3F   3/ 7
$$

.............KEY..............
   WCI - WIND CHILL
   TC  - TEMPERATURE IN CELSIUS
   VSB - VISIBILITY IN MILES
   HX  - HEAT INDEX
   FAIR- INDICATES FEW OR NO CLOUDS BELOW 12,000 FT, WITH NO
         SIGNIFICANT WEATHER AND/OR OBSTRUCTIONS TO VISIBILITY.






U.S. Dept. of Commerce
NOAA National Weather Service
1325 East West Highway
Silver Spring, MD 20910
E-mail: w-nws.webmaster@noaa.gov
Page last modified: May 16, 2007
NATIONAL WEATHER SERVICE: for Safety, for Work, for Fun - FOR LIFE